カタログに戻る

GENA-OT-1

運用中科学SSO
NORAD 66774·PAYLOAD·🇩🇪 Germany

打ち上げ Nov 28, 2025 から Vandenberg Space Force Base

Loading…

次のパス (今後24時間)

TLE

最新Source: Space-Track

元期: Sep 14, 2026, 03:42 UTC

1 66774U 25276DN  26257.15478526  .00004543  00000-0  20206-3 0  9991
2 66774  97.4132 329.7996 0000383 141.5080 218.6184 15.21993910 43979

AllMySatでGENA-OT-1をリアルタイム追跡

Download on the App Store